User: anonymous   Login
Location: Unspecified
(0.0000°N, 0.0000°E)
Time: 21:27:57
(UTC+00:00)
Language:

Cosmos 2112 Rocket - Orbit

View from above orbital plane
View from above orbital plane
View from above satellite
View from above satellite

Ground track
Ground track

The orbit data is extracted from the following two-line orbital elements,

1 21015U 90111B   24057.21846679  .00000449  00000-0  16166-3 0  9992
2 21015  74.0528 331.8949 0021626 348.3706  11.6945 14.36458822837098
Epoch (UTC): 26 February 2024 05:14:35
Eccentricity: 0.0021626
inclination: 74.0528°
perigee height: 755 km
apogee height: 785 km
right ascension of ascending node: 331.8949°
argument of perigee: 348.3706°
revolutions per day: 14.36458822
mean anomaly at epoch: 11.6945°
orbit number at epoch: 83709

The dashed part of the orbit path shows where the satellite is in the earth's shadow,  

DLR